| time (UTC) | temp C | wind direction | speed KPH | gust KPH | rain 1hr cm | rain 24hr cm | rain mn cm | humidity % | barometer mb |
| 20260507051540 | 14 | 24 | 1.6 | 4.8 | 0.00 | 0.00 | 0.00 | 77 | 1017.3 |
| 20260507050042 | 15 | 333 | 1.6 | 3.2 | 0.00 | 0.00 | 0.00 | 76 | 1017.2 |
| 20260507044532 | 15 | 310 | 0.0 | 0.0 | 0.00 | 0.00 | 0.00 | 75 | 1017.3 |
| 20260507043034 | 15 | 310 | 0.0 | 1.6 | 0.00 | 0.00 | 0.00 | 75 | 1017.2 |
| 20260507041531 | 15 | 310 | 0.0 | 1.6 | 0.00 | 0.00 | 0.00 | 74 | 1017.3 |
| 20260507040034 | 16 | 310 | 0.0 | 3.2 | 0.00 | 0.00 | 0.00 | 73 | 1017.2 |
| 20260507034546 | 16 | 310 | 0.0 | 0.0 | 0.00 | 0.00 | 0.00 | 72 | 1017.1 |
| 20260507033036 | 16 | 310 | 0.0 | 3.2 | 0.00 | 0.00 | 0.00 | 71 | 1016.9 |
| 20260507031524 | 16 | 310 | 0.0 | 0.0 | 0.00 | 0.00 | 0.00 | 70 | 1016.6 |
| 20260507030030 | 16 | 309 | 0.0 | 0.0 | 0.00 | 0.00 | 0.00 | 69 | 1016.5 |
| 20260507024543 | 17 | 310 | 0.0 | 4.8 | 0.00 | 0.00 | 0.00 | 68 | 1016.5 |
| 20260507023027 | 17 | 297 | 4.8 | 9.7 | 0.00 | 0.00 | 0.00 | 65 | 1016.4 |
| 20260507021522 | 17 | 258 | 4.8 | 11.3 | 0.00 | 0.00 | 0.00 | 63 | 1016.4 |
| 20260507020026 | 18 | 261 | 4.8 | 12.9 | 0.00 | 0.00 | 0.00 | 63 | 1016.4 |
| 20260507014541 | 18 | 244 | 6.4 | 14.5 | 0.00 | 0.00 | 0.00 | 60 | 1016.3 |
| 20260507013023 | 18 | 225 | 6.4 | 14.5 | 0.00 | 0.00 | 0.00 | 59 | 1016.3 |
| 20260507011539 | 18 | 317 | 6.4 | 16.1 | 0.00 | 0.00 | 0.00 | 60 | 1016.3 |
| 20260507010040 | 19 | 250 | 8.0 | 14.5 | 0.00 | 0.00 | 0.00 | 58 | 1016.1 |
| 20260507004528 | 20 | 277 | 8.0 | 17.7 | 0.00 | 0.00 | 0.00 | 58 | 1016.1 |
| 20260507003032 | 20 | 329 | 8.0 | 17.7 | 0.00 | 0.00 | 0.00 | 58 | 1016.1 |
| 20260507001528 | 20 | 235 | 8.0 | 14.5 | 0.00 | 0.00 | 0.00 | 58 | 1016.2 |
| 20260507000031 | 20 | 257 | 8.0 | 16.1 | 0.00 | 0.00 | 0.00 | 58 | 1016.2 |
| 20260506234524 | 20 | 279 | 6.4 | 14.5 | 0.00 | 0.00 | 0.00 | 56 | 1016.2 |
| 20260506233026 | 20 | 300 | 11.3 | 17.7 | 0.00 | 0.00 | 0.00 | 56 | 1016.3 |
| 20260506231537 | 20 | 226 | 6.4 | 17.7 | 0.00 | 0.00 | 0.00 | 57 | 1016.4 |
| 20260506230021 | 20 | 265 | 8.0 | 17.7 | 0.00 | 0.00 | 0.00 | 57 | 1016.4 |
| 20260506224634 | 21 | 286 | 9.7 | 17.7 | 0.00 | 0.00 | 0.00 | 55 | 1016.5 |
| 20260506223032 | 20 | 287 | 6.4 | 19.3 | 0.00 | 0.00 | 0.00 | 57 | 1016.6 |
| 20260506221528 | 20 | 281 | 8.0 | 20.9 | 0.00 | 0.00 | 0.00 | 57 | 1016.8 |
| 20260506220032 | 20 | 288 | 8.0 | 19.3 | 0.00 | 0.00 | 0.00 | 58 | 1017.2 |
| 20260506214523 | 21 | 246 | 12.9 | 20.9 | 0.00 | 0.00 | 0.00 | 56 | 1017.3 |
| 20260506213126 | 20 | 246 | 9.7 | 24.1 | 0.00 | 0.00 | 0.00 | 58 | 1017.5 |
| 20260506211540 | 21 | 286 | 11.3 | 17.7 | 0.00 | 0.00 | 0.00 | 58 | 1017.5 |
| 20260506210024 | 21 | 285 | 8.0 | 22.5 | 0.00 | 0.00 | 0.00 | 57 | 1017.5 |
| 20260506204533 | 21 | 236 | 8.0 | 16.1 | 0.00 | 0.00 | 0.00 | 58 | 1017.6 |
| 20260506203026 | 20 | 275 | 11.3 | 22.5 | 0.00 | 0.00 | 0.00 | 60 | 1017.6 |
| 20260506201532 | 20 | 289 | 11.3 | 22.5 | 0.00 | 0.00 | 0.00 | 59 | 1017.9 |
| 20260506200035 | 21 | 313 | 11.3 | 22.5 | 0.00 | 0.00 | 0.00 | 58 | 1018.0 |
| 20260506194535 | 20 | 298 | 8.0 | 20.9 | 0.00 | 0.00 | 0.00 | 57 | 1018.1 |
| 20260506193034 | 20 | 267 | 9.7 | 17.7 | 0.00 | 0.00 | 0.00 | 56 | 1018.2 |
| 20260506191527 | 20 | 321 | 8.0 | 19.3 | 0.00 | 0.00 | 0.00 | 54 | 1018.3 |
| 20260506190033 | 20 | 317 | 8.0 | 20.9 | 0.00 | 0.00 | 0.00 | 54 | 1018.4 |
| 20260506184527 | 20 | 288 | 4.8 | 16.1 | 0.00 | 0.00 | 0.00 | 55 | 1018.5 |
| 20260506183031 | 20 | 249 | 8.0 | 17.7 | 0.00 | 0.00 | 0.00 | 57 | 1018.6 |
| 20260506181524 | 18 | 286 | 6.4 | 12.9 | 0.00 | 0.00 | 0.00 | 58 | 1018.7 |
| 20260506180025 | 18 | 288 | 3.2 | 12.9 | 0.00 | 0.00 | 0.00 | 58 | 1018.9 |
| 20260506174534 | 18 | 269 | 8.0 | 14.5 | 0.00 | 0.00 | 0.00 | 60 | 1018.8 |
| 20260506173038 | 18 | 320 | 4.8 | 16.1 | 0.00 | 0.00 | 0.00 | 61 | 1018.8 |
| 20260506171532 | 17 | 274 | 3.2 | 12.9 | 0.00 | 0.00 | 0.00 | 60 | 1018.9 |
| 20260506170033 | 17 | 296 | 3.2 | 14.5 | 0.00 | 0.00 | 0.00 | 63 | 1018.8 |
| 20260506164530 | 17 | 290 | 6.4 | 11.3 | 0.00 | 0.00 | 0.00 | 63 | 1018.7 |
| 20260506163034 | 17 | 284 | 1.6 | 9.7 | 0.00 | 0.00 | 0.00 | 64 | 1018.6 |
| 20260506161526 | 16 | 277 | 3.2 | 8.0 | 0.00 | 0.00 | 0.00 | 66 | 1018.7 |
| 20260506160030 | 16 | 229 | 3.2 | 11.3 | 0.00 | 0.00 | 0.00 | 69 | 1018.7 |
| 20260506154523 | 15 | 256 | 0.0 | 4.8 | 0.00 | 0.00 | 0.00 | 72 | 1018.7 |
| 20260506153039 | 15 | 277 | 1.6 | 6.4 | 0.00 | 0.00 | 0.00 | 74 | 1018.6 |
| 20260506151534 | 14 | 137 | 0.0 | 4.8 | 0.00 | 0.00 | 0.00 | 81 | 1018.6 |
| 20260506150024 | 13 | 128 | 0.0 | 3.2 | 0.00 | 0.00 | 0.00 | 84 | 1018.7 |
| 20260506144550 | 12 | 127 | 1.6 | 4.8 | 0.00 | 0.00 | 0.00 | 86 | 1018.6 |
| 20260506143048 | 12 | 111 | 0.0 | 4.8 | 0.00 | 0.00 | 0.00 | 87 | 1018.6 |
| 20260506141530 | 11 | 109 | 1.6 | 6.4 | 0.00 | 0.00 | 0.00 | 88 | 1018.6 |
| 20260506140048 | 10 | 107 | 0.0 | 4.8 | 0.00 | 0.00 | 0.00 | 89 | 1018.4 |
| 20260506134532 | 10 | 107 | 0.0 | 0.0 | 0.00 | 0.00 | 0.00 | 89 | 1018.3 |
| 20260506133029 | 10 | 107 | 0.0 | 0.0 | 0.00 | 0.00 | 0.00 | 89 | 1018.3 |
| 20260506131533 | 10 | 107 | 0.0 | 4.8 | 0.00 | 0.00 | 0.00 | 89 | 1018.1 |
| 20260506130143 | 9 | 107 | 0.0 | 4.8 | 0.00 | 0.00 | 0.00 | 89 | 1018.0 |
| 20260506124534 | 9 | 107 | 0.0 | 3.2 | 0.00 | 0.00 | 0.00 | 89 | 1017.9 |
| 20260506123035 | 9 | 107 | 1.6 | 4.8 | 0.00 | 0.00 | 0.00 | 89 | 1017.7 |
| 20260506121530 | 9 | 107 | 0.0 | 1.6 | 0.00 | 0.00 | 0.00 | 88 | 1017.6 |
| 20260506120034 | 9 | 107 | 1.6 | 4.8 | 0.00 | 0.00 | 0.00 | 88 | 1017.7 |
| 20260506114527 | 9 | 108 | 1.6 | 4.8 | 0.00 | 0.00 | 0.00 | 88 | 1017.6 |
| 20260506113037 | 10 | 109 | 0.0 | 0.0 | 0.00 | 0.00 | 0.00 | 88 | 1017.6 |
| 20260506111527 | 10 | 109 | 0.0 | 0.0 | 0.00 | 0.00 | 0.00 | 88 | 1017.5 |
| 20260506110039 | 10 | 109 | 0.0 | 6.4 | 0.00 | 0.00 | 0.00 | 88 | 1017.5 |
| 20260506104527 | 10 | 117 | 0.0 | 1.6 | 0.00 | 0.00 | 0.00 | 88 | 1017.5 |
| 20260506103027 | 10 | 117 | 1.6 | 9.7 | 0.00 | 0.00 | 0.00 | 88 | 1017.5 |
| 20260506101537 | 10 | 114 | 0.0 | 3.2 | 0.00 | 0.00 | 0.00 | 88 | 1017.5 |
| 20260506100025 | 10 | 115 | 0.0 | 0.0 | 0.00 | 0.00 | 0.00 | 88 | 1017.7 |
| 20260506094534 | 10 | 115 | 0.0 | 1.6 | 0.00 | 0.00 | 0.00 | 88 | 1017.8 |
| 20260506093038 | 10 | 115 | 0.0 | 0.0 | 0.00 | 0.00 | 0.00 | 88 | 1017.8 |
| 20260506091533 | 10 | 115 | 0.0 | 0.0 | 0.00 | 0.00 | 0.00 | 88 | 1017.8 |
| 20260506090039 | 10 | 115 | 1.6 | 3.2 | 0.00 | 0.00 | 0.00 | 88 | 1017.9 |
| 20260506084537 | 10 | 115 | 0.0 | 3.2 | 0.00 | 0.00 | 0.00 | 88 | 1017.9 |
| 20260506083033 | 10 | 115 | 1.6 | 4.8 | 0.00 | 0.00 | 0.00 | 88 | 1018.2 |
| 20260506081525 | 11 | 118 | 1.6 | 3.2 | 0.00 | 0.00 | 0.00 | 87 | 1018.2 |
| 20260506073024 | 11 | 136 | 1.6 | 4.8 | 0.00 | 0.00 | 0.00 | 87 | 1018.0 |
| 20260506071537 | 11 | 138 | 1.6 | 4.8 | 0.00 | 0.00 | 0.00 | 86 | 1017.9 |
| 20260506061528 | 11 | 259 | 0.0 | 3.2 | 0.00 | 0.00 | 0.00 | 84 | 1017.2 |